Location: Azul
(36.7830°S, 59.8500°W)
Time: 12:41:39
(UTC-03:00)

ISS - Pass Details

Date: 18 August 2020
Orbit: 419 x 420 km, 51.6° (Epoch: 19 September)

Event Time Altitude Azimuth Distance (km) Brightness Sun altitude
Rises 19:30:06 0° 327° (NNW) 2,367 0.7 -12.9°
Reaches altitude 10° 19:32:14 10° 333° (NNW) 1,510 -0.5 -13.3°
Maximum altitude 19:35:28 43° 45° (NE) 614 -3.2 -14.0°
Enters shadow 19:36:46 28° 97° (E) 826 -2.9 -14.2°
